Location: Ferintosh
(52.7647°N, 112.9692°W)
Time: 21:38:43
(UTC+00:00)

Transit 2A Rocket - Pass Details

Date: 21 May 2024
Orbit: 583 x 910 km, 66.7° (Epoch: 12 June)

Event Time Altitude Azimuth Distance (km) Brightness Sun altitude
Rises 17:44:33 0° 316° (NW) 3,306 7.9 51.9°
Reaches altitude 10° 17:47:13 10° 327° (NNW) 2,426 7.3 52.2°
Maximum altitude 17:52:09 30° 28° (NNE) 1,500 6.7 52.7°
Drops below altitude 10° 17:57:22 10° 88° (E) 2,564 8.2 53.2°
Sets 18:00:15 0° 99° (E) 3,524 8.8 53.4°
